Regional Weather Roundup
Issued by NWS

Home | Current Version | Previous Version | Graphics & Text | Print | Product List | Glossary On
Versions: 1 2 3 4 5 6 7 8 9 10 11 12 13 14 15 16 17 18 19 20 21 22 23 24 25 26 27
000
ASUS45 KTFX 161510
RWRMT
MONTANA REGIONAL WEATHER ROUNDUP
NATIONAL WEATHER SERVICE GREAT FALLS MT
800 AM MST SAT DEC 16 2017

NOTE: "FAIR" INDICATES FEW OR NO CLOUDS BELOW 12000 FEET WITH NO
SIGNIFICANT WEATHER AND/OR OBSTRUCTIONS TO VISIBILITY.

MTZ001>007-043-161600-
WEST OF THE DIVIDE

CITY           SKY/WX    TMP DP  RH WIND       PRES   REMARKS
KALISPELL      CLOUDY    25  24  96 E3        30.04S
MISSOULA       CLOUDY    28  27  96 CALM      30.05R FOG
BUTTE          LGT SNOW  26  23  88 W6        29.92R FOG     WCI  19
MULLAN PASS    CLOUDY    18  13  80 NW5       29.95R HAZE
ANACONDA         N/A     27  25  93 NE5       29.94S
DEER LODGE       N/A     28  25  86 NW14      29.96R WCI  17
EUREKA           N/A     25  23  93 MISG      30.08S
HAMILTON         N/A     28  28 100 CALM      30.03R VSB 3/4
LIBBY            N/A     25  23  93 CALM      30.09R
PLAINS           N/A     27  23  84 CALM      30.09R
RONAN            N/A     28  26  92 CALM      30.07S
$$

MTZ008-052>055-161600-
SOUTHWEST MONTANA

CITY           SKY/WX    TMP DP  RH WIND       PRES   REMARKS
BOZEMAN        LGT SNOW  30  29  96 SW3       29.92R FOG
DILLON         LGT SNOW  26  23  88 CALM      29.90R FOG
W YELLOWSTONE  MIX PCPN  23  21  93 SW6       29.85S VSB 1   WCI  16
ENNIS          LGT SNOW  28  27  93 N5        29.92S
THREE FORKS      N/A     28  27  96 CALM      29.92R
TWIN BRIDGES     N/A     31  24  75 N3        29.90R
$$

MTZ009-010-012-014-046-048-049-054-161600-
EAST SLOPES AND CENTRAL MONTANA

CITY           SKY/WX    TMP DP  RH WIND       PRES   REMARKS
CUT BANK       SNOW      27  27 100 SE6       29.95R VSB 1/2 WCI  20
GREAT FALLS    LGT SNOW  29  27  92 E8        29.95S FOG     WCI  21
MALMSTROM AFB  MOCLDY    28  28 100 NE3       29.96S
HELENA         CLOUDY    30  28  92 SE5       29.94R
BOWMANS CRNR   MOCLDY    26  25  99 CALM      29.91R
CHOTEAU          N/A     25  23  93 E7        29.96R WCI  17
FAIRFIELD      MOCLDY    27  25  90 E7        29.94R WCI  20
POWER          LGT SNOW  28  27  97 CALM      29.95R
RAYNESFORD     LGT SNOW  29  26  88 SE9       29.94R WCI  20
ULM            FLURRIES  29  29  99 NW3       29.95R
$$

MTZ011-013-016-021-045-047-050-051-161600-
NORTH CENTRAL MONTANA

CITY           SKY/WX    TMP DP  RH WIND       PRES   REMARKS
HAVRE          CLOUDY    28  27  96 SW6       29.97S WCI  22
LEWISTOWN      MOCLDY    28  26  92 CALM      29.93S
N BAR RANCH    CLOUDY    30  23  74 CALM      29.95R
CHINOOK          N/A     28  28 100 CALM      29.98S
DENTON         MOCLDY    28  26  93 CALM      29.92R
GEYSER         FLURRIES  27  26  94 W3        29.94R
GRASS RANGE    MOCLDY    30  23  75 CALM      29.92R
STANFORD       LGT SNOW  26  26  99 NW5       29.94R
WINIFRED       MOCLDY    29  27  93 NW6       29.94R WCI  23
$$

MTZ017>020-022>027-061-062-161600-
NORTHEAST MONTANA

CITY           SKY/WX    TMP DP  RH WIND       PRES   REMARKS
GLASGOW        CLOUDY    22  20  92 W6        29.95R WCI  14
GLENDIVE       FAIR      28  24  85 NW14      29.92R WCI  17
JORDAN           N/A     28  24  85 NW6       29.95R WCI  22
SIDNEY         FAIR      26  22  84 W16       29.92R WCI  14
WOLF POINT     FAIR      23  19  85 SW9       29.95R WCI  13
MALTA          CLOUDY    30  28  93 W8        29.97R WCI  23
PLENTYWOOD       N/A     25  19  80 CALM      29.89R
POPLAR           N/A     21  19  93 W6        29.94R WCI  14
SCOBEY           N/A     21  12  68 CALM      29.89R
$$

MTZ028>42-056>058-161600-
SOUTHCENTRAL AND SOUTHEAST MONTANA

CITY           SKY/WX    TMP DP  RH WIND       PRES   REMARKS
BAKER          FAIR      29  27  92 W10       29.91R WCI  20
BILLINGS       LGT SNOW  30  29  96 E9        29.95R FOG     WCI  22
LIVINGSTON     LGT SNOW  31  31 100 SE7       29.89R FOG     WCI  24
MILES CITY     CLOUDY    30  27  88 W7        29.95R WCI  23
BIG TIMBER     FOG       30  30 100 N5        29.93R VSB 1/2
EKALAKA          N/A     26  22  85 W3        29.90R
FORSYTH          N/A     34  28  80 W6        29.97R WCI  29
LAUREL         FOG       30  30 100 NE14      29.95R VSB 1   WCI  20
$$

REGIONAL REPORTS...DAKOTAS

CITY           SKY/WX    TMP DP  RH WIND       PRES   REMARKS
WILLISTON        N/A     25  20  81 W6        29.89R WCI  18
MINOT          CLOUDY    36  30  79 W12       29.82R WCI  28
DICKINSON      FAIR      27  24  89 NW9       29.86R WCI  18
BEACH          FAIR      27  25  93 NW7       29.93R WCI  19
CROSBY         FAIR      27  25  93 NW12      29.85R WCI  16
TIOGA          FAIR      27  27 100 W10       29.86R WCI  17
WATFORD CITY   CLOUDY    28  25  86 W10G16    29.88R WCI  19
BISMARCK       FAIR      34  31  88 W8        29.87R WCI  27
GRAND FORKS    CLOUDY    22  18  85 CALM      29.82R
FARGO          CLOUDY    27  24  89 S5        29.82R
BUFFALO SD       N/A     32  27  81 NW12      29.85R WCI  23
RAPID CITY     CLOUDY    35  27  72 N17       29.89R WCI  25
$$

REGIONAL REPORTS...WYOMING/IDAHO/WASHINGTON

CITY           SKY/WX    TMP DP  RH WIND       PRES   REMARKS
GILLETTE       LGT SNOW  30  26  85 N5        29.89R FOG
SHERIDAN       LGT SNOW  32  32 100 CALM      29.92R VSB 3/4
BUFFALO WY     LGT SNOW  32  28  85 N7        29.90R FOG     WCI  26
CODY           LGT SNOW  31  29  92 NW3       29.87S VSB 3/4
YELLOWSTONE LA   N/A     20  18  92 CALM      29.85R
IDAHO FALLS    LGT SNOW  24  22  91 SW8       29.96R FOG     WCI  15
SALMON         CLOUDY    20  18  92 CALM      30.02R
BOISE          CLOUDY    23  21  92 W7        30.10R WCI  15
SPOKANE        SNOW      25  25 100 W3        30.18R VSB 1/2
$$

REGIONAL REPORTS...ALBERTA

CITY           SKY/WX    TMP DP  RH WIND       PRES   REMARKS
EDMONTON       CLEAR     28  14  54 W14       29.87R WCI  17
CALGARY        PTCLDY    23  10  58 SW6       29.93S WCI  16
LETHBRIDGE     FLURRIES  30  27  86 NE3       29.98R
MEDICINE HAT   MOCLDY    28  21  74 SW7       29.98R WCI  21
$$

REGIONAL REPORTS...SASKATCHEWAN

CITY           SKY/WX    TMP DP  RH WIND       PRES   REMARKS
SWIFT CURRENT  CLEAR     19  14  79 W14       29.86R WCI   6
REGINA         PTCLDY    23  19  86 W13       29.82R WCI  11
SASKATOON      PTCLDY    23  18  80 SW10      29.78R WCI  12
$$




USA.gov is the U.S. government's official web portal to all federal, state and local government web resources and services.